Location: Cardiff
(53.7833°N, 113.6000°W)
Time: 15:44:48
(UTC+00:00)

RS-15 - Pass Details

Date: 11 December 2023
Orbit: 1893 x 2151 km, 64.8° (Epoch: 27 February)

Event Time Altitude Azimuth Distance (km) Brightness Sun altitude
Exits shadow 12:00:32 55° 264° (W) 2,264 7.9 -31.1°
Maximum altitude 12:01:49 58° 241° (WSW) 2,210 7.9 -30.9°
Drops below altitude 10° 12:12:24 10° 166° (SSE) 4,287 9.9 -29.4°
Sets 12:15:40 0° 163° (SSE) 5,270 10.5 -28.9°
